Daily Summary for June 24, 2021 Units:  Metric    English   Both
Daily Weekly Monthly Yearly
  Current: High: Low: Average:
Temperature: 11.7 °C 11.9 °C 10 °C 11.1 °C
Dew Point: 10.9 °C 11.2 °C 9 °C 10.3 °C
Humidity: 95% 95% 94% 95%
Wind Speed: 10.6km/h 18.3km/h 5.1km/h 11.7km/h
Wind Gust: 24.1km/h 40.2km/h - -
WindNNW - - NW
Pressure: 1009.1 hPa 1017.6 hPa 1008.2 hPa -
Precipitation: 29.0 mm      
 
 
Tabular Data for June 24, 2021
Time Temperature Dew Point Pressure Wind Wind Speed Wind Gust Humidity Rainfall Rate (Hourly) solar
00:04 10 °C 9 °C 1017.6 hPa NNW 5.5 km/h 14.5 km/h 94% 1.5 mm 0 W/m2
00:09 10 °C 9 °C 1017.6 hPa NNW 5.1 km/h 14.5 km/h 94% 1.5 mm 0 W/m2
00:14 10 °C 9.1 °C 1017.6 hPa NW 6.4 km/h 14.5 km/h 94.4% 1.5 mm 0 W/m2
00:19 10 °C 9.2 °C 1017.5 hPa NW 6.4 km/h 14.5 km/h 95% 1.5 mm 0 W/m2
00:24 10.1 °C 9.3 °C 1017.6 hPa NNW 6.4 km/h 12.9 km/h 95% 1.8 mm 0 W/m2
00:29 10.1 °C 9.3 °C 1017.5 hPa NNW 5.5 km/h 12.9 km/h 95% 2.0 mm 0 W/m2
00:34 10.1 °C 9.3 °C 1017.4 hPa NNW 6.1 km/h 12.9 km/h 95% 2.3 mm 0 W/m2
00:39 10.1 °C 9.3 °C 1017.2 hPa NNW 6.4 km/h 12.9 km/h 95% 2.3 mm 0 W/m2
00:44 10.1 °C 9.3 °C 1017.2 hPa North 5.1 km/h 12.9 km/h 95% 2.3 mm 0 W/m2
00:49 10.1 °C 9.4 °C 1017.1 hPa North 5.8 km/h 20.9 km/h 95% 2.3 mm 0 W/m2
00:54 10.2 °C 9.4 °C 1017.1 hPa NNW 7.4 km/h 20.9 km/h 95% 2.3 mm 0 W/m2
00:59 10.2 °C 9.5 °C 1017.0 hPa NNW 8 km/h 20.9 km/h 95% 2.3 mm 0 W/m2
01:04 10.3 °C 9.5 °C 1016.8 hPa North 8 km/h 19.3 km/h 95% 2.3 mm 0 W/m2
01:09 10.3 °C 9.5 °C 1016.8 hPa NNW 8 km/h 19.3 km/h 95% 2.3 mm 0 W/m2
01:14 10.3 °C 9.5 °C 1016.8 hPa NNW 7.7 km/h 19.3 km/h 95% 2.3 mm 0 W/m2
01:19 10.3 °C 9.5 °C 1016.7 hPa NNW 7.1 km/h 17.7 km/h 95% 2.0 mm 0 W/m2
01:24 10.3 °C 9.5 °C 1016.7 hPa North 6.4 km/h 16.1 km/h 95% 2.3 mm 0 W/m2
01:29 10.3 °C 9.5 °C 1016.7 hPa NNW 7.7 km/h 16.1 km/h 95% 2.3 mm 0 W/m2
01:34 10.3 °C 9.5 °C 1016.6 hPa NNW 8.4 km/h 17.7 km/h 95% 2.3 mm 0 W/m2
01:39 10.3 °C 9.5 °C 1016.4 hPa NNW 8 km/h 17.7 km/h 95% 2.3 mm 0 W/m2
01:44 10.3 °C 9.5 °C 1016.4 hPa NNW 8 km/h 20.9 km/h 95% 2.5 mm 0 W/m2
01:49 10.3 °C 9.6 °C 1016.2 hPa NNW 10.3 km/h 20.9 km/h 95% 2.8 mm 0 W/m2
01:54 10.3 °C 9.6 °C 1016.1 hPa North 10.3 km/h 20.9 km/h 95% 2.8 mm 0 W/m2
01:59 10.3 °C 9.6 °C 1016.0 hPa North 9.3 km/h 19.3 km/h 95% 2.8 mm 0 W/m2
02:04 10.3 °C 9.6 °C 1015.7 hPa North 8.4 km/h 19.3 km/h 95% 3.0 mm 0 W/m2
02:09 10.3 °C 9.6 °C 1015.7 hPa North 9 km/h 22.5 km/h 95% 3.0 mm 0 W/m2
02:14 10.4 °C 9.6 °C 1015.8 hPa North 10.6 km/h 24.1 km/h 95% 3.0 mm 0 W/m2
02:19 10.4 °C 9.6 °C 1015.8 hPa North 11.3 km/h 24.1 km/h 95% 3.0 mm 0 W/m2
02:24 10.4 °C 9.6 °C 1015.8 hPa North 11.3 km/h 24.1 km/h 95% 3.0 mm 0 W/m2
02:29 10.4 °C 9.7 °C 1015.7 hPa North 11.6 km/h 27.4 km/h 95% 2.8 mm 0 W/m2
02:34 10.4 °C 9.7 °C 1015.5 hPa North 12.2 km/h 27.4 km/h 95% 2.8 mm 0 W/m2
02:39 10.4 °C 9.7 °C 1015.5 hPa North 11.3 km/h 27.4 km/h 95% 2.3 mm 0 W/m2
02:44 10.4 °C 9.7 °C 1015.4 hPa North 11.3 km/h 24.1 km/h 95% 2.3 mm 0 W/m2
02:49 10.4 °C 9.7 °C 1015.2 hPa NNW 12.6 km/h 24.1 km/h 95% 2.3 mm 0 W/m2
02:54 10.5 °C 9.7 °C 1015.3 hPa NNW 11.3 km/h 24.1 km/h 95% 2.0 mm 0 W/m2
02:59 10.5 °C 9.7 °C 1015.3 hPa NNW 12.2 km/h 30.6 km/h 95% 1.5 mm 0 W/m2
03:04 10.5 °C 9.7 °C 1015.3 hPa NNW 13.5 km/h 30.6 km/h 95% 1.5 mm 0 W/m2
03:09 10.5 °C 9.7 °C 1015.1 hPa NNW 10.6 km/h 30.6 km/h 95% 1.5 mm 0 W/m2
03:14 10.5 °C 9.7 °C 1015.0 hPa NNW 9.3 km/h 24.1 km/h 95% 1.5 mm 0 W/m2
03:19 10.5 °C 9.7 °C 1015.1 hPa NNW 11.3 km/h 24.1 km/h 95% 1.5 mm 0 W/m2
03:24 10.5 °C 9.7 °C 1015.1 hPa NNW 11.3 km/h 24.1 km/h 95% 1.5 mm 0 W/m2
03:29 10.5 °C 9.7 °C 1015.1 hPa NNW 9.7 km/h 25.7 km/h 95% 1.5 mm 0 W/m2
03:34 10.5 °C 9.7 °C 1015.0 hPa NNW 9.7 km/h 25.7 km/h 95% 1.5 mm 0 W/m2
03:39 10.5 °C 9.7 °C 1014.8 hPa NNW 9.3 km/h 25.7 km/h 95% 1.3 mm 0 W/m2
03:44 10.5 °C 9.8 °C 1014.7 hPa NNW 9.3 km/h 19.3 km/h 95% 1.3 mm 0 W/m2
03:49 10.6 °C 9.8 °C 1014.6 hPa NNW 9.7 km/h 24.1 km/h 95% 1.0 mm 0 W/m2
03:54 10.6 °C 9.8 °C 1014.5 hPa North 9.3 km/h 24.1 km/h 95% 1.3 mm 0 W/m2
03:59 10.6 °C 9.8 °C 1014.5 hPa North 9.3 km/h 24.1 km/h 95% 1.3 mm 0 W/m2
04:04 10.6 °C 9.8 °C 1014.4 hPa NNW 10.3 km/h 22.5 km/h 95% 1.3 mm 0 W/m2
04:09 10.6 °C 9.8 °C 1014.4 hPa NNW 10.9 km/h 22.5 km/h 95% 1.0 mm 0 W/m2
04:14 10.6 °C 9.8 °C 1014.4 hPa NNW 9.7 km/h 22.5 km/h 95% 1.0 mm 0 W/m2
04:19 10.7 °C 9.9 °C 1014.3 hPa NNW 9.7 km/h 22.5 km/h 95% 1.3 mm 0 W/m2
04:24 10.7 °C 9.9 °C 1014.2 hPa NNW 10.9 km/h 22.5 km/h 95% 1.3 mm 0 W/m2
04:29 10.7 °C 9.9 °C 1014.2 hPa NNW 11.3 km/h 22.5 km/h 95% 1.3 mm 0 W/m2
04:34 10.7 °C 9.9 °C 1014.0 hPa North 8.7 km/h 20.9 km/h 95% 1.3 mm 0 W/m2
04:39 10.7 °C 9.9 °C 1013.8 hPa North 7.4 km/h 19.3 km/h 95% 1.3 mm 0 W/m2
04:44 10.7 °C 9.9 °C 1013.8 hPa North 8.7 km/h 25.7 km/h 95% 1.5 mm 0 W/m2
04:49 10.7 °C 9.9 °C 1013.5 hPa North 10.3 km/h 25.7 km/h 95% 1.5 mm 0 W/m2
04:54 10.7 °C 9.9 °C 1013.7 hPa North 9.3 km/h 25.7 km/h 95% 1.5 mm 0 W/m2
04:59 10.7 °C 9.9 °C 1013.7 hPa North 8 km/h 16.1 km/h 95% 1.8 mm 0 W/m2
05:04 10.7 °C 9.9 °C 1013.6 hPa North 8 km/h 16.1 km/h 95% 2.3 mm 0 W/m2
05:09 10.7 °C 9.9 °C 1013.5 hPa North 8 km/h 16.1 km/h 95% 2.3 mm 0 W/m2
05:14 10.6 °C 9.9 °C 1013.3 hPa North 8 km/h 17.7 km/h 95% 2.8 mm 0 W/m2
05:19 10.6 °C 9.8 °C 1013.1 hPa North 8 km/h 17.7 km/h 95% 2.8 mm 0 W/m2
05:24 10.6 °C 9.8 °C 1012.9 hPa North 7.1 km/h 17.7 km/h 95% 2.8 mm 0 W/m2
05:29 10.6 °C 9.8 °C 1012.8 hPa North 7.1 km/h 16.1 km/h 95% 2.8 mm 0 W/m2
05:34 10.6 °C 9.8 °C 1012.8 hPa North 7.1 km/h 16.1 km/h 95% 2.5 mm 0 W/m2
05:39 10.6 °C 9.9 °C 1012.8 hPa North 8 km/h 19.3 km/h 95% 2.5 mm 0 W/m2
05:44 10.7 °C 9.9 °C 1012.8 hPa North 9.3 km/h 19.3 km/h 95% 2.3 mm 0 W/m2
05:49 10.7 °C 9.9 °C 1012.8 hPa North 9.7 km/h 20.9 km/h 95% 2.3 mm 0 W/m2
05:54 10.7 °C 9.9 °C 1012.9 hPa North 9.7 km/h 20.9 km/h 95% 2.3 mm 0 W/m2
05:59 10.7 °C 9.9 °C 1012.9 hPa North 10.3 km/h 20.9 km/h 95% 2.3 mm 0 W/m2
06:04 10.8 °C 10 °C 1012.9 hPa North 10.3 km/h 20.9 km/h 95% 2.3 mm 0 W/m2
06:09 10.8 °C 10 °C 1012.8 hPa North 9.7 km/h 20.9 km/h 95% 2.3 mm 0 W/m2
06:14 10.8 °C 10 °C 1012.8 hPa North 9.7 km/h 20.9 km/h 95% 2.3 mm 0 W/m2
06:19 10.8 °C 10.1 °C 1012.8 hPa North 9 km/h 24.1 km/h 95% 1.8 mm 0 W/m2
06:24 10.8 °C 10.1 °C 1012.8 hPa North 9.7 km/h 24.1 km/h 95% 1.8 mm 0 W/m2
06:29 10.9 °C 10.1 °C 1012.7 hPa North 11.3 km/h 24.1 km/h 95% 1.8 mm 0 W/m2
06:34 10.9 °C 10.1 °C 1012.7 hPa North 12.6 km/h 24.1 km/h 95% 2.0 mm 0 W/m2
06:39 10.9 °C 10.1 °C 1012.6 hPa NNW 13.8 km/h 24.1 km/h 95% 2.3 mm 0 W/m2
06:44 10.9 °C 10.2 °C 1012.6 hPa NNW 12.9 km/h 27.4 km/h 95% 2.3 mm 0 W/m2
06:49 10.9 °C 10.2 °C 1012.6 hPa NNW 14.2 km/h 27.4 km/h 95% 2.0 mm 0 W/m2
06:54 11 °C 10.2 °C 1012.6 hPa NNW 14.5 km/h 27.4 km/h 95% 2.0 mm 0 W/m2
06:59 11 °C 10.2 °C 1012.6 hPa NNW 12.9 km/h 27.4 km/h 95% 2.0 mm 0 W/m2
07:04 11 °C 10.2 °C 1012.5 hPa NNW 12.6 km/h 27.4 km/h 95% 1.8 mm 0 W/m2
07:09 11 °C 10.2 °C 1012.5 hPa North 11.3 km/h 27.4 km/h 95% 1.5 mm 0 W/m2
07:14 11 °C 10.3 °C 1012.6 hPa North 12.9 km/h 27.4 km/h 95% 1.5 mm 0 W/m2
07:19 11.1 °C 10.3 °C 1012.5 hPa NNW 13.8 km/h 27.4 km/h 95% 1.5 mm 0 W/m2
07:24 11.1 °C 10.3 °C 1012.5 hPa North 12.6 km/h 27.4 km/h 95% 1.8 mm 0 W/m2
07:29 11.1 °C 10.3 °C 1012.5 hPa North 13.2 km/h 29 km/h 95% 1.5 mm 0 W/m2
07:34 11.1 °C 10.3 °C 1012.4 hPa NNW 14.8 km/h 29 km/h 95% 1.5 mm 0 W/m2
07:39 11.1 °C 10.3 °C 1012.4 hPa NNW 14.5 km/h 29 km/h 95% 1.5 mm 0 W/m2
07:44 11.1 °C 10.3 °C 1012.4 hPa North 12.9 km/h 27.4 km/h 95% 1.3 mm 0 W/m2
07:49 11.1 °C 10.4 °C 1012.3 hPa North 14.2 km/h 27.4 km/h 95% 1.3 mm 0 W/m2
07:54 11.2 °C 10.4 °C 1012.2 hPa NNW 14.5 km/h 27.4 km/h 95% 1.0 mm 7 W/m2
07:59 11.2 °C 10.4 °C 1012.1 hPa North 14.5 km/h 29 km/h 95% 1.0 mm 7 W/m2
08:04 11.2 °C 10.5 °C 1012.0 hPa North 14.5 km/h 29 km/h 95% 1.3 mm 7 W/m2
08:09 11.3 °C 10.5 °C 1012.0 hPa North 14.5 km/h 29 km/h 95% 1.0 mm 12 W/m2
08:14 11.3 °C 10.5 °C 1011.9 hPa North 14.5 km/h 33.8 km/h 95% 0.8 mm 25 W/m2
08:19 11.3 °C 10.5 °C 1011.9 hPa North 13.5 km/h 33.8 km/h 95% 0.8 mm 25 W/m2
08:24 11.3 °C 10.6 °C 1011.9 hPa North 14.5 km/h 33.8 km/h 95% 0.8 mm 28 W/m2
08:29 11.3 °C 10.6 °C 1011.8 hPa North 16.1 km/h 30.6 km/h 95% 0.8 mm 23 W/m2
08:34 11.3 °C 10.6 °C 1011.6 hPa North 16.1 km/h 32.2 km/h 95% 0.8 mm 21 W/m2
08:39 11.3 °C 10.6 °C 1011.7 hPa North 15.8 km/h 32.2 km/h 95% 0.8 mm 18 W/m2
08:44 11.4 °C 10.6 °C 1011.7 hPa North 15.1 km/h 32.2 km/h 95% 1.3 mm 18 W/m2
08:49 11.4 °C 10.6 °C 1011.7 hPa North 14.5 km/h 29 km/h 95% 1.5 mm 12 W/m2
08:54 11.4 °C 10.6 °C 1011.6 hPa North 13.2 km/h 29 km/h 95% 1.8 mm 9 W/m2
08:59 11.4 °C 10.6 °C 1011.5 hPa North 14.5 km/h 30.6 km/h 95% 1.5 mm 14 W/m2
09:04 11.4 °C 10.6 °C 1011.5 hPa North 15.8 km/h 30.6 km/h 95% 1.5 mm 18 W/m2
09:09 11.4 °C 10.6 °C 1011.5 hPa North 15.8 km/h 30.6 km/h 95% 1.8 mm 25 W/m2
09:14 11.4 °C 10.6 °C 1011.5 hPa North 15.1 km/h 30.6 km/h 95% 2.0 mm 21 W/m2
09:19 11.4 °C 10.6 °C 1011.5 hPa North 13.8 km/h 30.6 km/h 95% 2.3 mm 19 W/m2
09:24 11.4 °C 10.6 °C 1011.6 hPa NNW 13.8 km/h 37 km/h 95% 2.3 mm 83 W/m2
09:29 11.4 °C 10.7 °C 1011.5 hPa NNW 16.1 km/h 37 km/h 95% 2.0 mm 76 W/m2
09:34 11.5 °C 10.7 °C 1011.5 hPa NNW 17.7 km/h 37 km/h 95% 2.0 mm 91 W/m2
09:39 11.5 °C 10.7 °C 1011.5 hPa NNW 17.4 km/h 33.8 km/h 95% 2.0 mm 65 W/m2
09:44 11.6 °C 10.8 °C 1011.4 hPa NNW 16.7 km/h 33.8 km/h 95% 2.0 mm 84 W/m2
09:49 11.6 °C 10.8 °C 1011.3 hPa NNW 14.8 km/h 32.2 km/h 95% 2.0 mm 84 W/m2
09:54 11.7 °C 10.9 °C 1011.4 hPa NNW 13.2 km/h 29 km/h 95% 1.8 mm 60 W/m2
09:59 11.6 °C 10.8 °C 1011.2 hPa NNW 12.6 km/h 25.7 km/h 95% 2.0 mm 35 W/m2
10:04 11.6 °C 10.8 °C 1011.1 hPa NNW 11.3 km/h 25.7 km/h 95% 2.0 mm 58 W/m2
10:09 11.6 °C 10.8 °C 1011.0 hPa North 13.2 km/h 30.6 km/h 95% 2.0 mm 67 W/m2
10:14 11.7 °C 10.9 °C 1011.0 hPa North 16.7 km/h 40.2 km/h 95% 2.0 mm 93 W/m2
10:19 11.7 °C 10.9 °C 1011.0 hPa North 17.7 km/h 40.2 km/h 95% 2.0 mm 58 W/m2
10:24 11.7 °C 10.9 °C 1010.9 hPa North 18.3 km/h 40.2 km/h 95% 2.0 mm 69 W/m2
10:29 11.8 °C 11 °C 1010.9 hPa NNW 18.3 km/h 32.2 km/h 95% 2.3 mm 114 W/m2
10:34 11.8 °C 11 °C 1010.8 hPa North 17.7 km/h 32.2 km/h 95% 2.3 mm 93 W/m2
10:39 11.9 °C 11.1 °C 1010.7 hPa North 16.1 km/h 29 km/h 95% 2.0 mm 93 W/m2
10:44 11.9 °C 11.2 °C 1010.6 hPa North 14.2 km/h 29 km/h 95% 2.0 mm 77 W/m2
10:49 11.9 °C 11.1 °C 1010.5 hPa North 15.8 km/h 29 km/h 95% 1.5 mm 21 W/m2
10:54 11.8 °C 11 °C 1010.6 hPa North 17.4 km/h 38.6 km/h 95% 1.5 mm 25 W/m2
10:59 11.8 °C 11 °C 1010.9 hPa NNW 17.7 km/h 38.6 km/h 95% 1.5 mm 9 W/m2
11:04 11.7 °C 10.9 °C 1010.8 hPa NNW 18 km/h 38.6 km/h 95% 1.5 mm 18 W/m2
11:09 11.7 °C 10.9 °C 1010.8 hPa NNW 18 km/h 35.4 km/h 95% 1.5 mm 14 W/m2
11:14 11.6 °C 10.9 °C 1010.7 hPa NNW 17.7 km/h 35.4 km/h 95% 1.5 mm 11 W/m2
11:19 11.6 °C 10.8 °C 1010.6 hPa North 16.1 km/h 32.2 km/h 95% 2.0 mm 12 W/m2
11:24 11.6 °C 10.8 °C 1010.6 hPa North 15.1 km/h 33.8 km/h 95% 2.3 mm 16 W/m2
11:29 11.6 °C 10.8 °C 1010.7 hPa North 17.4 km/h 33.8 km/h 95% 2.3 mm 14 W/m2
11:34 11.5 °C 10.7 °C 1010.7 hPa North 17.4 km/h 33.8 km/h 95% 2.3 mm 18 W/m2
11:39 11.5 °C 10.7 °C 1010.5 hPa North 15.8 km/h 27.4 km/h 95% 2.8 mm 37 W/m2
11:44 11.5 °C 10.7 °C 1010.4 hPa North 14.5 km/h 25.7 km/h 95% 2.8 mm 44 W/m2
11:49 11.4 °C 10.7 °C 1010.1 hPa North 16.1 km/h 25.7 km/h 95% 3.3 mm 32 W/m2
11:54 11.4 °C 10.7 °C 1010.2 hPa North 15.4 km/h 25.7 km/h 95% 3.3 mm 25 W/m2
11:59 11.4 °C 10.7 °C 1010.0 hPa North 12.6 km/h 25.7 km/h 95% 3.8 mm 58 W/m2
12:04 11.4 °C 10.7 °C 1009.9 hPa North 10.3 km/h 22.5 km/h 95% 4.1 mm 54 W/m2
12:09 11.4 °C 10.7 °C 1010.0 hPa North 10.6 km/h 22.5 km/h 95% 3.8 mm 33 W/m2
12:14 11.4 °C 10.7 °C 1010.0 hPa North 11.9 km/h 22.5 km/h 95% 3.6 mm 14 W/m2
12:19 11.4 °C 10.6 °C 1010.0 hPa NNW 11.3 km/h 22.5 km/h 95% 3.8 mm 12 W/m2
12:24 11.4 °C 10.6 °C 1009.9 hPa NNW 10 km/h 20.9 km/h 95% 3.8 mm 14 W/m2
12:29 11.4 °C 10.6 °C 1009.9 hPa NNW 9.7 km/h 19.3 km/h 95% 3.8 mm 21 W/m2
12:34 11.4 °C 10.6 °C 1009.8 hPa NNW 9.7 km/h 19.3 km/h 95% 4.1 mm 26 W/m2
12:39 11.4 °C 10.6 °C 1009.5 hPa NNW 9.7 km/h 19.3 km/h 95% 4.3 mm 42 W/m2
12:44 11.4 °C 10.6 °C 1009.5 hPa NNW 10.6 km/h 22.5 km/h 95% 4.3 mm 44 W/m2
12:49 11.4 °C 10.7 °C 1009.1 hPa NNW 11.9 km/h 22.5 km/h 95% 4.1 mm 141 W/m2
12:54 11.5 °C 10.8 °C 1009.0 hPa North 11.6 km/h 25.7 km/h 95% 4.1 mm 153 W/m2
12:59 11.6 °C 10.8 °C 1009.1 hPa NNW 12.9 km/h 25.7 km/h 95% 3.6 mm 84 W/m2
13:04 11.6 °C 10.8 °C 1009.1 hPa NNW 12.9 km/h 25.7 km/h 95% 3.3 mm 84 W/m2
13:09 11.6 °C 10.8 °C 1009.0 hPa NNW 13.2 km/h 27.4 km/h 95% 3.3 mm 65 W/m2
13:14 11.6 °C 10.8 °C 1009.0 hPa NNW 13.5 km/h 27.4 km/h 95% 3.0 mm 25 W/m2
13:19 11.6 °C 10.8 °C 1009.0 hPa NNW 12.9 km/h 27.4 km/h 95% 2.8 mm 18 W/m2
13:24 11.6 °C 10.8 °C 1008.9 hPa NNW 11.3 km/h 27.4 km/h 95% 2.3 mm 18 W/m2
13:29 11.6 °C 10.8 °C 1008.9 hPa NNW 11.6 km/h 27.4 km/h 95% 2.3 mm 39 W/m2
13:34 11.6 °C 10.8 °C 1008.7 hPa NNW 14.2 km/h 27.4 km/h 95% 2.0 mm 79 W/m2
13:39 11.7 °C 10.9 °C 1008.8 hPa NNW 16.1 km/h 27.4 km/h 95% 1.8 mm 81 W/m2
13:44 11.7 °C 10.9 °C 1008.6 hPa NNW 14.8 km/h 25.7 km/h 95% 1.5 mm 91 W/m2
13:49 11.8 °C 11 °C 1008.5 hPa North 12.9 km/h 30.6 km/h 95% 1.5 mm 137 W/m2
13:54 11.8 °C 11.1 °C 1008.7 hPa North 12.2 km/h 30.6 km/h 95% 1.3 mm 100 W/m2
13:59 11.8 °C 11.1 °C 1008.6 hPa NNW 12.2 km/h 30.6 km/h 95% 1.3 mm 86 W/m2
14:04 11.8 °C 11 °C 1008.5 hPa NNW 12.3 km/h 22.5 km/h 95% 1.0 mm 86 W/m2
14:09 11.8 °C 11.1 °C 1008.5 hPa NNW 11.3 km/h 22.5 km/h 95% 0.8 mm 84 W/m2
14:14 11.8 °C 11.1 °C 1008.5 hPa NNW 11.9 km/h 25.7 km/h 95% 0.8 mm 84 W/m2
14:19 11.8 °C 11.1 °C 1008.4 hPa NNW 11.3 km/h 25.7 km/h 95% 0.8 mm 86 W/m2
14:24 11.8 °C 11.1 °C 1008.4 hPa NNW 10.6 km/h 25.7 km/h 95% 0.5 mm 65 W/m2
14:29 11.9 °C 11.1 °C 1008.4 hPa NNW 10.9 km/h 25.7 km/h 95% 0.5 mm 63 W/m2
14:34 11.9 °C 11.1 °C 1008.4 hPa NNW 11.3 km/h 20.9 km/h 95% 0.5 mm 67 W/m2
14:39 11.9 °C 11.1 °C 1008.3 hPa NNW 11.3 km/h 22.5 km/h 95% 0.2 mm 54 W/m2
14:44 11.8 °C 11.1 °C 1008.2 hPa NNW 10.9 km/h 22.5 km/h 95% 0.2 mm 130 W/m2
14:49 11.9 °C 11.1 °C 1008.4 hPa NW 10.3 km/h 22.5 km/h 95% 0.5 mm 130 W/m2
14:54 11.9 °C 11.2 °C 1008.4 hPa NNW 9 km/h 20.9 km/h 95% 0.5 mm 86 W/m2
14:59 11.9 °C 11.2 °C 1008.4 hPa NNW 9.6 km/h 20.9 km/h 95% 0.5 mm 39 W/m2
15:04 11.9 °C 11.2 °C 1008.5 hPa North 10.9 km/h 29 km/h 95% 0.5 mm 51 W/m2
15:09 11.9 °C 11.2 °C 1008.6 hPa NNW 11.3 km/h 29 km/h 95% 0.5 mm 49 W/m2
15:14 11.9 °C 11.2 °C 1008.6 hPa NNW 11.3 km/h 29 km/h 95% 0.5 mm 46 W/m2
15:19 11.9 °C 11.1 °C 1008.7 hPa NNW 11.6 km/h 25.7 km/h 95% 0.2 mm 33 W/m2
15:24 11.9 °C 11.1 °C 1008.8 hPa NW 11 km/h 25.7 km/h 95% 0.2 mm 19 W/m2
15:29 11.9 °C 11.1 °C 1008.9 hPa NW 9.4 km/h 25.7 km/h 95% 0.5 mm 11 W/m2
15:34 11.8 °C 11.1 °C 1008.9 hPa NW 8 km/h 16.1 km/h 95% 0.5 mm 9 W/m2
15:39 11.8 °C 11 °C 1008.9 hPa NW 8.7 km/h 24.1 km/h 95% 0.5 mm 9 W/m2
15:44 11.7 °C 10.9 °C 1009.0 hPa NNW 10 km/h 24.1 km/h 95% 0.5 mm 7 W/m2
15:49 11.7 °C 10.9 °C 1009.1 hPa NNW 10.6 km/h 24.1 km/h 95% 0.5 mm 16 W/m2
Compliments of Weather Underground - 1 mb

Latitude S 35° 13' 00" Longitude E 149° 01' 22" Elevation 577 m
Page updated 24/06/2021 3:50:03 PM.
Powered by Cumulus MX v3.2.0 (3056)